Location: Creola (historical)
(38.1334°N, 100.5024°W)
Time: 00:36:45
(UTC+00:00)

SJ-12 - Pass Details

Date: 18 October 2021
Orbit: 568 x 583 km, 97.7° (Epoch: 28 November)

Event Time Altitude Azimuth Distance (km) Brightness Sun altitude
Rises 12:03:57 0° 5° (N) 2,776 7.4 -10.6°
Reaches altitude 10° 12:06:09 10° 360° (N) 1,874 6.5 -10.1°
Maximum altitude 12:10:03 47° 286° (WNW) 763 4.1 -9.4°
Drops below altitude 10° 12:13:55 10° 213° (SSW) 1,862 6.3 -8.6°
Sets 12:16:06 0° 207° (SSW) 2,756 7.2 -8.2°
